Terminal Aerodrome Forecast
Issued by NWS Cleveland, OH

Home | Current Version | Previous Version | Text Only | Print | Product List | Glossary Off
Versions: 1 2 3 4 5 6 7 8 9 10 11 12 13 14 15 16 17 18 19

000
FTUS41 KCLE 240900 AAA
TAFCAK
TAF AMD
KCAK 240940Z 2410/2506 14010KT P6SM OVC005
      TEMPO 2412/2414 4SM BR
     FM241900 18015G25KT P6SM -SHRA OVC012
     FM242300 23025G40KT P6SM OVC025=

USA.gov is the U.S. government's official web portal to all federal, state and local government web resources and services.